Location: New Mesquite
(33.1168°N, 96.4336°W)
Time: 15:01:58
(UTC+00:00)

Meteor 1-27 Rocket - Pass Details

Date: 06 July 2022
Orbit: 829 x 911 km, 81.3° (Epoch: 18 August)

Event Time Altitude Azimuth Distance (km) Brightness Sun altitude
Rises 07:17:41 0° 16° (NNE) 3,408 7.9 -33.1°
Reaches altitude 10° 07:21:46 10° 45° (NE) 2,453 6.7 -32.9°
Maximum altitude 07:24:02 12° 69° (ENE) 2,271 6.3 -32.8°
Drops below altitude 10° 07:26:17 10° 94° (E) 2,437 6.2 -32.6°
Enters shadow 07:26:35 - 97° (E) 2,482 6.2 -32.6°
